Theta_e
321 323 324 324 326 326 327 328 328 329 329 329 329 330 330 329 330 332 332 334 334 334 334 334 333 332 331 331 330 329 327 319 319 315 315 317 323 336 335 332 336 336 332 324 320 318 313 314 312 315 317 313 314 312 314 313 312 310 301 298 296 301 299 300 297 296 297 298 300 302 303 302 301 304 306 307 306 306 306 311 314 318 320 324 325 328 327 326
321 322 321 324 323 325 325 327 328 328 328 329 329 330 330 330 330 331 332 333 334 334 334 334 333 332 332 331 330 329 322 318 316 315 314 330 332 335 338 336 336 335 329 320 313 312 312 311 312 317 313 310 318 311 315 311 313 304 300 299 295 299 302 302 299 297 297 297 298 300 299 302 302 303 305 302 302 304 304 308 312 313 317 324 325 325 325 325
320 320 320 320 323 323 323 327 327 327 328 328 328 328 329 329 328 330 332 332 333 333 333 333 332 331 331 330 328 326 318 315 315 311 316 333 337 335 338 337 335 334 319 317 315 313 313 312 315 315 312 310 313 310 314 309 311 306 302 297 297 303 299 299 300 299 298 299 299 298 299 300 304 304 305 302 300 302 303 304 307 311 316 320 322 324 324 324
320 321 321 321 320 322 323 325 327 327 327 327 327 328 328 327 327 329 331 332 332 333 333 333 331 330 329 328 327 322 318 316 308 315 320 334 338 340 337 337 336 330 325 324 324 320 318 320 318 315 312 310 311 313 309 309 307 306 300 298 300 299 298 298 299 299 299 298 299 299 298 299 301 304 303 301 300 299 302 306 310 309 315 320 322 323 323 322
321 320 321 321 322 321 322 323 326 326 327 327 327 327 328 328 327 328 330 331 332 332 332 332 331 330 328 327 325 320 318 310 312 321 324 335 336 339 336 336 335 325 323 326 326 324 321 316 316 314 312 305 310 310 307 308 311 306 302 302 303 298 296 299 299 301 300 300 299 298 297 299 301 301 301 301 298 296 300 303 308 312 317 322 322 322 323 322
320 320 321 322 323 322 322 322 325 326 326 326 326 327 328 328 327 327 329 331 332 332 332 331 330 328 327 326 322 318 316 297 318 322 333 335 335 337 335 334 333 324 325 325 321 318 315 315 313 308 306 307 306 305 307 308 311 301 303 304 305 298 297 300 300 300 299 300 298 298 300 299 298 298 298 300 300 301 304 304 305 310 318 324 325 323 322 321
318 319 320 321 321 322 322 320 325 325 326 325 325 326 327 327 327 326 327 330 331 330 331 330 329 328 326 324 319 317 312 313 317 320 334 335 335 333 334 334 331 324 323 320 319 314 312 311 311 307 306 306 306 307 310 311 310 305 300 304 302 299 298 299 299 300 298 298 298 299 300 298 298 297 299 298 299 302 302 303 307 313 317 325 323 323 322 322
317 318 320 320 320 320 321 321 323 325 325 326 326 326 326 326 326 326 325 327 330 330 329 329 328 327 324 318 313 309 311 313 318 325 332 333 331 330 330 324 322 321 320 318 316 313 313 310 308 310 306 304 306 309 312 307 308 304 303 306 302 298 298 299 298 298 298 298 299 298 298 297 297 297 299 297 299 300 301 303 310 315 317 323 323 322 322 322
318 318 320 320 320 320 321 321 321 321 324 326 326 325 325 326 325 326 325 325 329 328 329 328 327 326 324 318 312 307 307 322 319 329 331 328 324 325 321 318 321 318 317 318 317 314 313 309 310 311 304 307 312 312 309 305 301 306 306 305 300 298 298 298 299 298 297 300 299 298 296 296 298 300 298 299 300 301 300 303 308 315 315 319 322 322 322 321
318 320 320 319 319 318 319 320 321 322 322 325 325 326 326 325 325 324 325 325 327 327 328 327 327 325 318 314 313 304 316 320 327 329 327 323 322 320 319 319 319 317 316 315 317 313 311 311 312 316 316 313 315 311 310 308 303 309 307 307 299 300 297 299 299 298 296 301 299 298 297 299 299 298 295 299 301 302 300 302 303 313 314 315 321 322 322 322
318 319 319 319 318 318 318 318 319 320 321 323 325 326 326 325 326 324 325 326 326 327 327 326 326 321 314 314 307 304 323 321 324 326 323 323 321 317 316 319 318 316 316 314 314 317 317 317 318 319 316 311 315 311 310 310 310 306 305 299 299 303 298 298 298 299 298 299 300 299 298 299 300 298 297 299 301 301 299 302 303 304 311 314 318 322 322 322
318 319 319 319 318 319 319 319 320 319 321 322 322 325 326 326 325 326 325 326 325 327 327 326 324 319 315 312 309 311 323 322 325 323 322 321 319 318 319 319 318 317 316 313 315 317 319 318 319 315 308 316 307 311 310 311 309 306 304 300 301 303 302 299 298 299 299 299 301 300 300 298 299 297 300 302 301 302 302 303 304 304 304 307 315 319 321 322
316 318 319 318 318 318 319 318 317 319 322 323 321 322 325 326 326 325 325 325 326 326 327 326 323 320 315 307 312 321 321 323 323 322 320 320 320 322 321 321 320 318 317 316 315 318 319 319 318 314 315 315 309 308 311 313 309 308 306 302 302 302 299 304 300 299 299 300 300 304 293 297 302 304 304 304 302 301 302 302 302 303 304 305 309 316 318 320
317 318 319 318 318 318 319 319 319 320 322 322 323 320 321 324 324 324 325 324 326 326 327 326 322 319 314 308 319 320 323 322 323 320 318 321 320 319 322 320 322 322 322 320 318 319 318 320 319 317 318 316 311 315 310 310 310 301 303 304 296 297 296 304 302 300 298 300 303 304 294 297 304 306 308 308 303 301 301 300 300 302 304 304 305 309 315 317
316 317 317 318 318 318 318 318 319 319 321 322 322 320 320 323 325 324 323 324 326 325 326 325 321 316 309 311 317 322 325 324 319 318 319 319 318 316 317 319 320 322 322 321 319 319 320 319 318 312 312 313 314 311 306 304 303 301 299 294 296 297 297 302 305 300 298 300 303 303 294 298 303 306 310 303 302 301 301 300 300 301 304 305 304 305 309 316
315 316 316 317 318 319 318 316 316 317 321 321 322 320 322 323 323 325 324 322 324 325 326 318 316 315 309 306 312 325 323 316 315 320 320 321 318 314 317 317 318 319 320 319 322 322 322 321 313 312 311 310 309 305 304 300 299 301 297 290 294 295 298 300 303 302 303 299 300 303 295 297 299 304 307 303 301 301 300 300 300 301 302 305 304 305 307 311
314 316 316 316 317 318 318 317 318 319 319 320 321 322 322 322 322 322 322 323 322 324 321 314 315 317 303 312 320 314 313 319 321 319 319 321 318 317 316 315 314 316 320 320 319 319 318 316 315 313 313 307 307 305 298 295 293 295 298 295 295 296 296 295 300 302 301 300 297 301 299 299 300 302 304 304 300 300 299 300 300 300 300 303 304 305 307 309
315 316 316 317 317 318 317 318 318 316 318 319 319 320 319 322 322 321 318 317 321 320 320 322 316 309 306 311 305 309 319 319 318 319 319 319 319 317 315 312 314 316 315 314 317 313 314 309 313 305 307 307 306 302 297 292 294 294 295 293 295 296 298 298 297 301 299 299 298 298 298 300 303 302 303 302 299 300 299 299 300 300 301 300 302 305 307 309
315 316 316 317 319 317 318 318 318 318 317 319 321 321 320 317 313 315 313 313 308 304 301 304 305 295 293 304 313 316 318 321 322 319 315 316 318 317 316 318 316 311 308 307 308 311 312 308 309 303 300 301 302 303 300 300 300 298 298 296 294 294 294 296 299 300 302 297 297 296 296 299 301 302 303 302 299 299 300 299 299 300 301 302 301 304 307 309
315 314 315 317 318 318 318 318 318 317 316 314 314 311 308 303 302 302 308 308 303 304 306 305 309 310 308 309 309 318 321 322 314 318 317 319 316 314 314 315 310 311 307 302 306 308 310 301 298 298 301 303 305 306 305 304 304 303 300 297 296 295 296 299 298 299 302 297 296 296 298 298 299 300 302 303 302 297 297 298 298 299 299 300 300 302 306 308
315 314 315 316 317 317 317 317 317 316 315 313 311 305 296 298 292 290 299 301 304 306 304 307 308 306 306 313 315 314 311 312 316 315 316 320 316 313 309 310 306 303 304 305 304 309 308 300 299 303 305 305 305 306 306 305 306 301 298 297 295 296 295 298 296 295 298 296 293 295 295 296 298 299 300 300 299 299 298 297 297 298 299 299 299 299 304 307
314 315 316 315 313 315 317 317 317 316 316 311 307 300 302 303 306 311 302 292 300 305 306 306 308 305 312 314 318 318 315 308 310 313 318 319 313 307 308 307 303 299 305 305 304 301 299 297 302 305 306 306 306 306 306 304 303 301 298 296 294 294 297 296 294 297 298 297 292 293 293 296 298 300 302 302 302 301 301 301 301 300 300 300 300 300 301 304
313 315 315 315 315 317 317 317 316 316 309 305 303 303 301 307 314 313 307 301 298 304 303 304 302 303 305 314 316 318 308 305 303 310 313 316 309 309 308 304 302 302 304 304 298 298 294 299 303 306 306 305 304 304 304 303 302 298 296 294 292 293 295 291 293 295 298 295 292 292 291 293 295 297 298 301 301 302 303 302 302 303 303 302 302 301 301 301
314 315 315 315 316 317 317 316 315 311 307 306 306 306 310 311 312 309 304 293 294 300 302 303 304 304 304 305 314 313 308 307 308 306 317 314 307 311 307 305 302 303 301 302 301 299 297 302 306 305 305 304 302 302 302 300 298 299 297 294 294 295 296 295 291 292 295 295 295 292 291 293 294 295 298 299 301 302 304 303 303 302 302 304 305 303 302 302
314 314 315 315 315 315 313 314 308 306 308 306 304 309 310 311 311 308 302 296 294 297 308 305 306 306 308 316 315 307 310 310 309 313 315 314 310 308 305 309 305 300 302 303 302 300 299 304 306 304 303 303 302 300 301 300 296 297 299 299 297 297 296 295 294 293 289 288 291 292 283 282 287 291 293 296 296 297 301 302 303 304 303 300 299 301 302 302
313 313 314 314 315 313 315 306 304 307 305 302 305 309 310 311 310 308 301 287 282 293 301 293 306 300 314 306 310 308 311 302 311 313 314 315 317 311 308 304 307 299 302 302 301 300 300 304 305 302 302 301 301 300 301 301 297 295 296 301 301 299 296 295 294 293 285 284 290 293 287 281 287 291 293 294 294 296 298 297 301 303 304 303 302 301 301 302
312 313 314 314 314 314 304 297 305 306 300 301 307 309 309 311 310 301 292 281 278 292 290 302 300 302 308 307 309 309 291 297 309 313 311 312 310 313 304 302 304 306 307 306 300 296 301 301 301 302 301 299 297 297 300 301 297 294 299 302 301 299 296 294 293 291 286 288 292 291 288 282 286 292 296 298 296 297 298 299 298 300 301 302 303 303 301 302
312 313 314 315 314 310 300 304 304 301 301 304 310 309 309 308 305 301 290 273 271 296 292 294 301 311 308 309 310 302 303 307 299 305 312 311 313 308 307 302 301 302 304 302 290 300 302 299 300 298 298 297 296 299 301 303 298 296 300 302 301 300 296 294 291 289 290 288 285 286 291 286 282 288 292 293 293 295 297 298 299 300 300 300 302 302 302 302
311 313 314 314 313 312 306 304 303 300 303 308 309 306 306 306 303 291 279 271 291 289 311 295 314 305 306 309 305 305 303 306 299 305 308 309 308 309 302 304 304 304 304 302 297 295 301 301 302 301 298 295 299 300 302 304 298 298 300 301 299 296 294 293 286 287 286 284 283 285 289 284 283 286 291 291 292 294 296 298 299 301 301 301 300 300 301 301
313 313 313 313 310 305 302 304 302 303 308 309 306 304 305 301 293 283 275 268 293 282 296 300 298 296 304 298 299 302 299 302 302 304 307 304 307 309 307 308 304 302 299 299 295 297 298 304 305 302 298 299 299 301 303 304 301 300 300 297 295 292 289 286 285 282 283 283 283 287 289 287 281 284 290 289 291 294 295 296 298 300 301 301 301 300 300 299
313 313 313 312 303 304 302 298 302 305 309 307 304 302 298 290 282 277 271 279 291 290 300 294 293 303 297 294 291 299 299 300 300 302 298 304 301 304 305 301 301 295 290 292 294 295 299 301 300 299 302 300 302 299 302 304 301 300 293 292 293 289 289 285 285 286 282 280 281 286 289 289 282 281 289 294 293 292 295 296 298 296 296 297 297 297 298 299
311 313 313 306 306 306 299 297 302 307 308 305 302 297 292 279 283 274 274 295 280 286 290 290 298 297 296 297 294 295 294 298 300 300 297 298 297 297 298 293 296 287 287 290 289 292 294 297 297 297 299 301 297 296 295 299 298 297 294 294 289 283 285 280 283 282 282 279 282 281 285 285 287 289 290 291 292 293 293 294 296 295 295 295 295 295 295 296
312 312 311 308 307 301 302 305 307 304 303 303 299 293 285 278 272 279 280 282 278 292 289 298 295 296 295 294 292 295 298 292 299 299 300 299 297 297 301 300 300 294 285 292 289 290 290 292 293 296 298 299 301 294 288 291 294 294 293 289 286 279 277 276 277 280 278 280 281 283 285 285 285 287 298 298 300 300 298 294 294 294 294 294 295 295 296 295
311 311 304 306 304 304 306 307 306 304 301 298 292 289 282 276 275 287 280 282 285 293 295 293 296 296 295 290 292 295 290 296 297 297 299 295 296 293 296 299 300 295 294 292 288 289 285 287 292 295 292 298 300 299 297 294 294 295 295 294 288 286 279 276 278 278 277 277 280 282 281 279 282 285 290 298 301 296 293 296 294 292 292 292 293 294 295 295
311 307 304 303 304 305 306 306 305 305 301 296 289 284 276 275 280 279 278 282 285 293 292 297 293 293 291 292 294 296 294 289 297 296 295 294 291 294 293 296 299 299 296 290 289 289 289 290 296 300 297 300 298 298 298 296 292 291 294 294 288 288 285 280 280 279 277 277 277 278 282 281 285 289 293 293 292 293 292 293 294 294 295 294 295 295 294 294
306 302 303 300 301 302 305 305 304 303 299 293 285 279 277 280 274 282 281 291 291 288 292 294 293 289 288 289 293 293 297 291 295 295 293 294 295 293 297 298 298 300 295 291 292 287 290 287 294 298 296 300 300 299 298 301 288 292 294 289 291 291 286 282 282 282 278 277 278 277 282 284 287 293 296 296 292 294 293 292 292 293 293 293 294 293 294 295
300 301 297 299 301 303 303 304 304 300 297 291 283 277 282 282 287 285 291 288 290 293 290 284 286 286 285 285 288 292 292 294 293 292 286 294 292 296 296 298 303 300 300 297 290 294 289 287 292 295 293 298 299 299 299 299 297 293 287 292 294 293 289 284 279 276 276 274 276 280 281 281 283 282 289 293 293 293 291 292 292 291 292 292 293 294 294 295
299 298 299 298 300 304 304 304 303 298 293 287 281 284 285 282 289 288 291 290 292 291 287 286 288 292 286 287 286 291 293 290 289 292 286 292 286 299 297 297 302 301 301 300 295 293 295 285 289 292 295 297 301 300 296 299 299 297 294 298 294 284 284 283 279 274 272 272 272 276 281 280 284 286 287 290 292 292 293 292 290 292 292 292 293 293 293 293
298 296 291 297 302 304 303 302 300 294 289 283 281 282 283 285 289 288 291 292 292 290 286 286 281 288 289 287 289 292 292 286 292 288 286 289 286 295 297 300 297 302 302 300 296 294 297 286 287 292 293 296 298 298 288 292 296 295 297 295 294 289 284 284 283 277 279 272 273 272 278 280 286 287 289 291 292 294 294 291 292 293 293 294 293 293 293 293
294 290 288 300 303 304 302 299 293 289 285 280 282 281 287 284 287 290 290 291 288 289 286 287 288 285 288 288 291 288 292 291 291 288 290 290 289 298 297 302 298 299 302 302 297 299 292 293 284 289 293 295 289 293 292 294 289 290 293 290 290 287 287 288 286 281 278 272 272 272 274 280 283 290 292 295 294 295 295 294 293 292 292 293 293 294 294 294
293 289 290 301 303 303 300 294 286 283 282 281 284 282 284 284 288 290 291 292 290 294 289 287 288 285 286 288 286 291 290 291 291 288 289 289 291 287 297 300 301 298 302 300 297 297 290 290 287 287 287 289 293 298 298 297 296 294 294 291 292 289 284 284 281 285 278 280 276 273 278 279 285 291 296 295 296 295 294 295 294 291 293 293 293 292 293 294
289 283 288 300 302 301 295 286 283 285 281 281 280 283 283 291 286 288 289 290 290 288 293 290 289 289 289 289 289 289 289 289 290 289 290 288 293 293 295 303 302 302 298 294 295 299 294 289 288 286 288 290 295 294 295 296 298 294 296 293 295 292 286 282 280 281 282 281 278 275 276 283 290 290 293 296 295 295 295 295 294 292 293 293 293 293 292 293
285 283 296 300 301 298 291 284 286 282 279 283 287 285 286 286 285 288 289 289 287 289 288 287 288 288 289 291 290 288 290 285 290 288 291 291 292 295 298 302 303 301 301 296 299 297 293 287 286 285 287 290 292 294 294 294 297 294 294 294 294 291 292 290 287 282 284 281 281 280 278 282 289 289 289 293 292 293 294 295 294 293 292 292 293 292 293 293
288 290 292 299 301 297 288 279 279 281 282 283 283 283 286 285 286 285 286 288 286 287 287 287 288 290 288 292 292 288 292 285 289 289 288 292 290 298 299 300 303 299 299 297 295 299 290 288 289 283 283 285 286 289 290 292 294 291 291 294 295 296 294 287 284 282 281 283 285 283 278 285 286 288 288 289 290 292 292 293 294 293 292 293 293 293 294 294
290 292 292 295 298 294 284 286 283 282 282 280 280 280 281 283 285 287 287 287 291 289 289 286 288 290 288 291 290 291 293 290 285 290 291 291 291 297 298 300 303 300 302 302 299 301 292 289 288 283 278 278 277 279 281 285 288 292 294 294 294 294 292 289 286 281 282 278 283 279 282 289 291 290 290 290 290 291 291 291 291 293 294 293 293 294 294 294
282 278 285 286 291 289 287 288 286 283 281 280 278 279 281 280 284 287 288 286 289 290 289 290 290 290 288 289 287 287 289 292 289 286 288 287 290 293 298 299 301 301 300 300 298 298 287 289 291 289 287 285 287 289 293 294 290 285 289 292 292 294 294 293 289 285 283 282 283 287 289 290 287 290 288 289 289 291 292 290 293 293 293 294 294 294 294 294
284 281 283 280 285 285 285 286 283 284 281 284 277 281 279 280 282 283 288 283 286 287 288 289 289 286 285 286 285 286 288 288 290 289 288 289 290 292 297 299 299 300 298 297 298 295 287 286 290 291 290 291 290 290 294 294 290 291 291 291 293 292 292 291 288 286 291 283 279 288 291 289 291 288 288 289 290 291 293 292 293 293 294 294 294 293 293 293
274 279 287 289 283 279 281 282 284 282 284 284 280 282 280 280 280 279 285 286 287 287 284 285 288 289 288 286 286 282 285 286 287 286 289 288 290 292 293 298 298 298 297 296 298 295 287 286 289 290 289 290 290 292 294 294 293 292 292 292 291 292 292 288 290 292 291 286 285 290 290 288 292 291 291 291 292 292 292 292 294 295 295 292 292 292 293 294
281 283 284 291 281 285 285 285 285 283 283 283 281 282 279 280 279 281 282 281 283 283 286 280 284 287 288 289 288 284 286 282 283 287 287 287 289 289 288 292 296 297 297 294 296 292 290 285 286 289 288 289 289 291 293 292 291 292 292 292 293 293 292 292 292 293 292 290 292 292 291 290 294 292 293 292 292 292 292 292 291 291 292 292 292 293 294 294
278 280 277 286 282 284 286 285 284 283 280 284 279 280 281 280 279 282 283 283 279 281 286 283 285 287 288 288 288 286 287 289 288 286 289 289 287 289 289 292 289 292 295 293 295 294 293 286 289 287 286 287 289 290 291 292 291 289 292 292 293 293 293 293 293 293 293 292 293 292 291 290 292 293 294 293 293 291 290 289 291 292 292 291 293 294 294 294
284 284 286 283 278 279 284 284 283 282 280 281 279 280 281 281 281 283 282 285 284 282 284 283 285 286 288 288 288 288 290 291 291 291 292 292 288 292 290 289 295 288 291 291 291 290 293 287 288 286 284 285 288 288 288 290 289 289 289 290 291 291 289 291 291 293 291 290 292 291 288 289 295 294 293 292 290 291 291 291 291 292 291 292 293 293 294 294
286 286 286 285 277 284 280 282 282 282 278 282 282 282 281 281 283 284 280 284 286 287 287 287 286 285 285 287 287 289 292 292 293 295 295 296 296 294 295 296 297 293 290 291 293 290 290 288 285 285 284 285 287 288 287 286 286 284 286 290 291 292 293 294 295 295 294 294 290 288 289 296 292 295 294 292 292 292 292 292 292 292 293 293 293 293 294 294
Wind_Speed
22 22 22 21 21 20 19 17 18 18 18 18 19 21 19 18 19 19 19 17 17 15 17 18 18 18 17 15 14 13 11 5 4 6 7 10 7 6 9 13 7 8 4 1 1 0 3 2 4 4 1 2 1 2 1 1 1 1 1 3 2 5 3 1 1 1 4 3 2 1 1 3 1 1 0 1 3 2 2 5 2 8 5 3 4 13 13 13
21 21 19 20 21 20 19 16 16 18 20 20 19 18 22 20 18 18 19 18 18 14 17 18 19 20 19 17 15 14 11 5 8 8 15 1 10 9 6 11 11 7 6 2 6 4 3 4 5 2 3 2 0 1 1 1 1 2 1 2 5 3 3 1 2 2 1 2 3 2 3 2 2 4 1 2 1 3 3 2 4 6 5 6 9 12 14 13
21 20 20 21 20 19 20 16 15 16 18 18 18 18 16 13 14 17 21 19 18 16 17 17 19 20 20 17 13 9 6 3 4 15 14 11 7 12 8 9 11 9 5 4 5 6 6 7 4 3 2 2 1 3 0 1 2 2 2 3 4 2 1 2 2 1 2 2 4 3 1 4 1 1 0 1 2 2 5 5 2 6 7 8 8 11 12 12
22 21 21 20 23 22 21 18 14 14 15 17 18 18 16 18 16 16 19 20 18 18 17 18 19 20 20 19 17 8 2 1 11 6 9 14 10 8 11 11 11 8 3 1 2 2 3 3 3 5 1 2 2 2 3 2 2 1 2 4 3 3 2 1 2 2 1 3 1 2 1 2 1 1 2 2 1 2 5 7 11 10 13 11 11 11 11 12
21 21 22 21 22 22 23 18 17 14 15 15 16 17 16 16 16 15 16 18 17 18 18 19 20 20 21 20 16 8 6 5 6 11 12 17 14 9 12 11 10 7 6 1 0 1 2 4 4 2 2 3 0 2 3 3 3 3 5 4 3 0 3 2 2 2 1 0 3 1 3 2 1 1 1 2 2 2 4 4 8 10 15 15 13 12 10 12
22 21 22 21 19 19 19 20 16 15 14 14 14 14 15 13 15 13 13 19 20 18 19 20 20 20 21 22 15 9 10 14 3 12 17 20 17 13 12 11 11 6 4 1 3 2 3 2 5 3 2 2 4 6 2 6 3 3 3 3 5 3 4 2 1 1 0 0 2 1 1 1 1 1 2 3 5 4 3 5 6 10 16 17 15 13 12 12
22 20 22 20 16 16 18 21 17 17 15 15 15 14 15 13 12 9 9 17 20 18 20 21 21 21 21 20 12 14 14 5 2 5 26 23 19 16 13 11 10 7 5 4 3 4 5 5 5 4 3 3 3 5 3 4 3 2 4 2 5 6 6 4 3 2 1 5 1 2 1 1 0 1 0 2 4 8 5 2 5 10 12 12 13 15 17 17
20 23 17 13 13 15 18 21 19 18 16 16 15 14 12 13 12 11 6 13 19 19 20 22 22 21 22 13 12 8 11 11 3 3 21 23 20 16 14 7 9 6 7 8 7 6 6 7 8 3 3 7 3 6 2 3 3 5 3 1 2 2 4 4 4 2 1 1 1 4 1 3 3 2 0 4 6 5 4 3 6 9 12 13 14 14 13 13
22 20 14 13 12 12 13 15 17 17 13 15 15 14 13 14 12 8 5 3 18 18 20 21 22 22 20 12 13 10 16 7 2 10 15 15 14 14 14 7 7 9 6 5 4 6 7 5 5 5 6 6 4 3 2 6 3 2 5 1 1 2 4 4 3 2 2 1 2 1 3 4 6 3 4 8 7 8 4 3 7 10 11 13 14 14 13 12
22 16 15 13 13 13 12 11 17 17 16 16 15 14 15 12 13 7 6 4 12 21 19 21 21 22 13 10 8 13 5 7 4 13 16 15 12 13 14 11 10 9 8 5 3 5 6 5 8 3 4 1 2 4 4 7 3 3 3 2 4 3 4 2 4 4 4 1 3 4 3 3 1 5 6 3 9 8 3 5 5 11 12 12 10 11 12 13
18 17 15 14 14 12 12 13 16 20 16 15 14 13 15 15 13 14 9 6 8 23 19 21 22 17 10 11 13 13 2 10 4 12 17 16 13 13 11 11 11 9 9 3 3 1 3 5 2 4 1 2 1 3 5 3 5 4 3 3 3 0 3 4 3 4 2 2 3 4 4 3 3 2 9 3 3 2 7 5 5 7 9 10 11 12 10 11
17 15 15 16 16 15 15 14 17 16 17 16 15 15 13 12 10 10 9 7 7 17 23 21 26 11 7 11 13 8 3 3 9 10 14 17 13 11 8 10 9 10 11 7 3 2 3 3 3 4 4 1 1 2 3 3 3 3 5 3 1 2 3 4 6 4 5 4 3 3 2 6 4 8 6 9 6 3 6 8 8 8 8 8 9 10 9 11
17 15 16 15 15 16 14 14 14 17 18 15 16 13 12 10 10 9 7 6 6 5 25 25 21 9 10 12 10 3 3 2 9 11 9 8 9 6 5 5 5 5 7 11 5 3 3 3 5 7 1 2 2 3 3 1 3 3 3 3 3 2 4 9 3 4 6 3 6 5 4 7 9 14 10 11 9 4 5 7 7 6 6 6 7 9 10 8
17 18 16 17 16 17 17 17 17 21 16 15 15 15 12 10 8 8 7 6 6 3 17 29 14 11 11 5 5 3 1 5 7 12 11 11 15 6 9 6 8 7 5 10 6 3 4 3 8 6 1 4 1 3 1 1 2 5 2 3 2 1 6 4 8 7 8 4 8 4 5 6 4 5 8 9 8 9 8 6 6 6 6 6 7 7 9 11
18 16 18 18 17 17 19 19 20 18 16 15 13 17 17 14 11 11 7 4 6 3 12 22 15 11 9 2 4 2 4 3 12 14 14 17 16 10 9 8 9 8 6 6 3 2 2 4 6 3 2 1 5 5 0 1 1 2 5 3 1 7 6 6 5 10 12 2 6 6 4 11 11 10 8 2 8 10 9 8 7 6 6 7 7 7 7 10
15 20 22 20 18 18 18 17 12 11 14 15 12 16 15 12 13 11 10 5 3 3 7 10 8 7 7 7 3 7 1 7 18 17 11 18 18 15 11 10 8 6 7 4 3 3 5 5 5 2 2 3 3 3 3 3 1 1 6 2 5 5 8 5 2 10 10 5 3 12 6 3 6 9 8 3 7 9 10 8 8 8 8 8 8 8 7 6
18 17 22 20 20 19 20 21 18 12 13 12 11 16 15 16 14 13 10 8 5 2 7 3 6 3 9 0 4 10 6 4 9 12 12 12 17 17 16 13 5 8 9 7 5 5 4 4 1 2 1 2 5 5 7 5 3 5 2 4 4 7 3 4 3 4 5 9 6 7 5 8 2 2 3 3 7 8 8 9 8 8 7 8 8 9 9 9
20 20 21 17 17 17 18 17 17 14 12 13 11 12 12 14 14 14 8 3 1 3 7 2 7 4 4 4 10 10 8 4 11 12 15 10 13 18 18 8 5 13 8 4 6 3 2 4 1 6 3 4 8 9 13 16 13 9 7 5 5 2 6 6 4 4 7 7 9 7 10 14 9 6 7 5 5 9 9 9 9 9 7 7 7 8 9 10
22 19 21 17 16 16 16 18 18 17 13 11 14 17 14 11 4 4 4 3 2 1 5 7 7 5 3 9 2 11 8 8 8 15 15 16 11 9 5 8 17 17 9 11 3 6 1 5 2 4 12 11 12 13 10 3 10 12 10 8 4 5 4 5 6 1 14 8 9 8 11 13 13 10 8 7 6 7 9 8 8 8 8 9 8 8 9 9
18 14 20 18 17 17 18 18 19 19 17 10 12 8 5 5 3 3 1 1 8 7 3 6 3 3 7 3 4 5 6 7 10 7 15 13 18 12 10 12 6 9 15 13 8 7 6 11 12 16 14 12 10 11 8 6 10 9 7 5 6 5 4 3 3 5 10 5 11 11 10 10 11 9 10 11 7 6 7 8 9 9 10 10 9 9 11 11
19 22 21 17 16 18 19 19 20 21 19 10 9 10 6 11 9 9 11 10 9 11 14 2 6 4 2 2 4 15 13 6 5 11 15 15 16 21 10 12 13 10 11 13 13 5 7 12 15 14 13 15 13 10 9 10 3 5 4 5 6 7 8 5 5 2 1 4 4 5 5 9 10 7 9 8 6 10 11 11 11 11 11 10 10 9 10 12
21 19 18 21 21 18 21 22 23 23 17 6 10 9 2 12 4 1 7 4 10 8 8 14 2 5 2 2 2 6 7 9 11 10 6 15 15 17 12 14 18 17 13 10 10 9 9 17 17 13 10 10 9 10 11 9 7 6 4 3 4 6 4 1 2 1 0 2 7 2 5 10 9 8 8 7 8 7 10 13 14 13 12 10 9 10 10 7
21 19 19 21 21 20 23 21 19 20 5 0 8 7 3 5 2 1 5 2 0 7 9 6 10 6 5 1 2 2 7 14 15 13 14 11 19 14 20 16 17 14 13 16 16 14 14 15 12 13 11 13 10 10 9 8 6 6 4 3 5 4 6 2 2 0 1 4 1 0 4 8 7 7 10 10 7 7 9 12 14 13 14 13 13 13 12 11
21 18 18 21 18 21 21 22 20 12 7 9 4 2 0 3 5 4 3 2 2 3 9 11 9 1 6 2 1 2 7 9 11 18 13 13 19 13 14 19 20 15 16 21 21 18 12 8 11 12 11 12 13 11 10 8 8 5 5 3 4 2 3 5 5 2 1 3 1 2 6 9 6 10 11 10 12 14 13 9 10 10 10 11 11 9 11 14
22 19 20 23 19 20 19 20 8 7 6 3 2 2 2 1 6 5 2 1 2 1 2 3 4 4 3 2 2 0 2 1 7 11 13 17 16 13 13 11 12 15 18 21 17 13 6 11 12 15 13 9 12 12 12 9 7 6 6 7 5 4 1 1 1 5 2 3 2 2 4 6 4 4 9 9 4 7 8 13 16 14 9 7 9 11 9 9
24 20 22 22 22 23 24 9 6 7 9 6 3 4 2 1 3 3 3 3 2 3 3 10 5 8 5 3 5 1 2 6 2 6 5 5 3 8 10 12 9 17 18 21 15 6 5 10 14 16 13 11 10 11 12 10 8 8 7 9 7 4 7 5 1 1 2 4 3 2 7 9 5 8 6 6 5 10 7 7 12 12 13 11 11 10 11 12
24 23 22 23 22 26 12 3 3 7 8 3 3 1 4 3 3 4 3 4 4 4 7 2 7 1 4 4 7 3 8 7 2 1 7 2 8 4 13 10 7 4 11 7 2 8 9 13 12 12 13 11 7 10 9 12 7 6 3 9 5 4 3 5 6 3 2 1 3 2 3 3 10 8 6 10 11 12 13 12 8 10 10 12 12 12 11 12
21 20 20 20 23 13 3 6 8 7 4 3 8 4 0 2 3 3 1 4 4 8 7 4 3 2 1 6 10 4 3 4 10 9 2 2 2 3 2 17 15 20 16 10 14 7 21 16 17 15 13 11 13 10 6 10 7 4 3 8 9 8 4 6 5 3 0 1 7 2 0 1 6 8 3 3 7 10 14 13 13 11 10 10 11 11 13 14
24 20 20 20 14 6 3 7 7 7 3 9 9 6 4 7 6 6 2 4 1 3 2 10 3 5 5 8 7 7 3 2 4 5 3 4 3 2 4 14 11 15 11 13 10 4 6 16 17 17 11 10 9 7 8 13 7 1 6 8 7 9 6 7 4 3 1 2 8 3 3 4 7 9 7 2 6 14 12 11 13 12 11 11 11 10 12 10
19 21 20 21 7 5 4 4 4 3 8 8 9 9 10 9 6 6 2 4 1 1 3 1 9 11 10 12 6 5 7 2 1 1 3 3 2 2 2 2 9 16 13 1 4 3 3 8 12 9 12 10 8 6 9 12 4 4 10 9 7 7 5 3 6 4 4 7 7 6 5 5 8 5 10 5 9 8 7 6 8 8 8 7 9 9 8 7
20 21 20 16 7 4 6 6 3 4 8 8 9 11 9 7 5 6 8 3 4 2 3 6 6 16 16 17 12 7 5 2 3 9 6 2 2 3 2 5 6 6 3 4 5 1 7 10 9 3 8 4 8 4 2 7 10 9 3 6 8 5 6 5 2 4 2 7 1 8 9 10 10 5 10 9 6 6 7 8 8 5 3 3 4 5 6 7
20 18 18 8 5 3 6 9 4 5 7 11 11 8 8 5 4 6 4 2 1 3 5 5 7 12 15 15 12 11 9 1 2 8 10 8 6 8 7 7 8 7 4 13 7 2 8 12 2 5 2 12 6 7 2 5 5 8 9 9 10 2 3 2 2 4 8 7 2 0 4 1 18 8 8 5 8 8 6 7 7 7 5 5 4 4 3 4
21 18 16 6 6 3 2 5 6 7 7 5 11 6 6 5 9 7 3 3 2 3 4 7 10 14 14 15 14 13 8 8 3 6 8 8 9 9 8 8 13 6 14 12 11 8 1 2 1 6 4 3 12 13 6 7 7 11 12 10 8 5 2 4 2 2 4 4 4 0 2 7 1 5 14 19 20 12 10 6 4 6 6 5 5 5 3 3
22 17 8 5 4 3 5 8 7 12 11 7 10 9 3 7 5 7 4 3 1 1 3 4 10 7 18 14 14 14 8 8 5 7 10 7 9 11 9 5 8 3 3 12 11 12 11 8 8 12 7 5 12 13 14 9 13 11 5 11 8 8 6 7 7 10 9 5 1 3 2 7 5 6 4 17 17 2 3 5 5 5 5 5 3 2 0 2
20 10 8 7 8 5 7 7 9 13 11 10 6 9 11 7 4 9 3 4 2 0 3 3 12 12 11 10 9 15 11 7 12 6 10 11 11 10 12 9 7 1 6 14 3 4 15 5 8 13 1 12 11 4 7 9 3 1 4 6 4 9 3 3 4 3 2 1 0 2 7 4 6 2 7 5 6 7 2 5 4 4 2 3 1 2 4 4
14 5 6 5 7 3 8 6 10 15 12 8 8 7 10 8 3 3 4 3 2 4 3 3 7 12 9 7 4 13 3 5 10 10 6 10 14 13 12 9 11 11 14 13 8 8 5 7 2 3 3 18 15 11 5 15 11 7 8 11 9 3 4 3 2 0 2 3 8 3 6 6 7 8 11 10 6 9 6 4 4 5 3 2 3 4 4 4
9 8 7 4 6 6 7 7 9 12 8 9 9 9 9 2 1 3 5 9 4 6 2 8 7 8 7 8 5 14 3 7 9 10 5 2 6 14 13 10 11 11 11 8 5 3 13 4 2 5 4 1 2 6 6 5 4 7 6 8 4 3 5 4 4 1 0 4 6 4 10 2 2 9 2 8 9 10 5 6 6 5 2 4 4 5 5 5
10 6 7 5 6 8 8 7 10 10 8 7 9 9 1 2 1 1 0 7 1 2 3 4 1 7 6 8 9 14 9 14 8 10 5 9 4 4 12 9 11 10 10 4 10 4 8 5 1 2 3 2 4 10 5 4 2 10 11 5 10 4 5 3 2 2 2 4 5 3 5 5 10 10 0 4 10 10 8 6 5 6 6 6 5 5 5 3
8 8 7 3 5 9 7 9 9 9 7 8 7 9 1 3 2 2 1 2 1 3 4 3 1 3 3 8 5 11 14 12 12 10 8 4 6 4 12 10 11 12 11 5 7 3 5 6 1 2 3 3 2 9 13 8 3 2 6 9 4 3 1 8 8 3 5 5 1 7 2 8 9 8 10 9 10 12 10 7 9 9 8 7 7 6 6 5
10 6 4 4 7 8 8 10 7 5 6 9 8 3 5 5 3 5 1 4 0 2 2 3 3 2 0 2 8 8 9 12 14 8 9 4 8 1 11 10 7 15 12 6 2 8 5 3 8 3 1 3 7 5 13 16 12 6 9 8 4 1 2 3 1 5 5 4 4 3 6 8 7 7 9 13 11 13 14 12 9 8 8 9 9 9 7 6
2 5 4 5 10 9 11 9 6 6 6 1 1 2 1 1 0 3 2 5 1 3 0 0 4 7 4 2 3 1 7 10 8 9 5 3 10 4 6 8 5 15 11 8 2 7 3 4 9 5 5 7 8 10 7 14 16 16 16 14 14 12 7 10 8 0 2 3 6 5 13 4 7 3 10 12 10 7 7 10 9 8 10 11 8 7 7 6
9 6 6 8 9 13 12 9 2 2 2 7 7 3 2 3 1 4 2 2 1 1 2 1 1 2 3 3 3 2 4 7 8 7 6 10 9 8 6 15 11 11 15 10 8 6 5 3 9 11 10 13 8 2 1 2 5 1 5 8 10 5 3 3 7 7 2 4 3 2 3 11 6 4 6 9 8 10 10 10 10 10 10 9 9 7 6 6
5 3 4 13 10 13 10 5 4 3 2 2 2 1 2 1 1 2 0 3 1 2 1 1 2 1 1 2 2 2 1 1 5 8 8 10 9 14 3 18 12 9 13 6 8 5 9 4 9 3 5 3 3 1 2 2 7 3 2 3 6 10 13 12 7 4 8 2 4 2 5 7 3 1 3 6 6 7 7 10 11 10 8 8 8 7 8 6
5 7 7 6 10 7 10 9 9 8 6 1 3 1 3 2 1 1 1 2 3 0 0 1 3 1 1 2 3 3 6 3 1 1 0 1 2 5 5 14 14 6 11 5 10 7 4 3 11 7 5 1 3 3 0 2 2 4 7 9 14 14 12 3 4 2 3 8 10 9 11 11 4 1 2 3 5 6 7 6 10 11 7 10 9 8 7 7
7 4 4 7 2 1 10 5 11 10 7 3 3 5 2 1 2 2 1 3 4 3 2 3 3 1 1 1 2 2 6 6 1 3 3 0 2 2 7 11 14 11 11 3 4 2 4 6 13 13 15 13 13 14 12 8 12 10 11 15 12 16 17 10 8 3 9 3 7 4 10 10 2 1 1 1 2 2 3 4 5 9 13 11 8 8 9 7
4 7 2 2 3 1 3 3 4 7 8 5 1 2 3 0 0 2 2 3 0 1 3 2 2 3 0 1 1 0 3 4 0 3 6 3 1 1 2 8 13 12 15 12 2 2 0 2 10 13 18 19 17 13 11 12 7 5 6 15 19 15 12 9 3 6 12 4 9 11 15 17 6 8 2 1 5 6 5 4 7 5 6 9 10 10 9 9
2 5 8 6 5 2 1 1 4 6 8 9 5 5 6 6 3 1 6 2 1 1 0 4 0 2 2 2 1 2 2 1 3 3 8 7 5 3 3 6 8 14 12 6 4 4 1 1 10 8 11 6 1 3 8 17 19 20 21 19 13 11 13 17 15 17 14 6 8 13 20 19 20 4 6 7 7 8 8 9 8 6 8 12 12 8 7 6
4 3 6 7 9 10 10 7 5 7 4 12 5 6 10 11 6 3 0 4 2 3 2 2 2 4 3 5 4 3 3 3 2 4 5 4 4 2 1 3 8 10 12 3 5 5 6 7 8 8 10 2 2 10 13 13 16 19 23 23 25 22 20 19 19 22 12 12 19 27 19 14 21 9 9 11 11 12 12 12 13 13 9 5 5 7 9 11
4 3 2 4 2 5 15 10 11 10 12 14 5 7 6 9 10 8 3 2 3 1 5 2 3 7 6 4 4 3 4 3 6 3 3 3 6 4 2 1 6 4 10 5 4 1 4 6 2 7 10 8 2 7 12 15 12 11 14 16 18 20 22 23 24 24 19 14 21 24 12 15 24 8 12 11 9 9 9 5 1 2 6 9 8 9 11 11
4 7 4 4 2 6 10 6 6 5 6 10 6 6 6 9 10 7 4 5 4 4 3 7 5 5 8 7 6 7 5 7 5 7 4 6 3 5 5 6 2 1 6 10 7 3 6 4 9 4 7 10 6 4 7 14 14 15 15 19 19 18 19 22 21 21 17 19 21 23 17 17 9 7 10 8 9 5 2 4 7 10 8 7 10 12 12 13
2 2 5 9 5 3 7 8 8 9 7 6 7 4 6 8 10 10 6 6 7 7 8 13 12 8 5 8 8 12 8 7 8 8 5 10 10 6 7 3 7 3 5 5 3 2 10 3 5 4 6 7 7 8 9 10 14 16 17 17 17 18 19 20 20 21 19 21 24 18 13 17 19 10 5 4 3 7 10 10 10 9 9 11 13 13 12 13
4 2 5 8 5 5 8 5 6 8 9 8 9 10 8 12 10 9 5 6 9 7 9 15 14 12 5 7 13 14 13 12 13 12 7 6 6 3 4 3 9 9 6 9 4 8 10 7 7 6 6 10 9 14 12 7 5 9 14 18 23 25 26 25 25 21 15 17 18 17 21 25 3 11 10 7 9 11 11 12 11 11 13 13 13 14 14 13
Wind_Direction
244 231 231 229 229 223 217 210 212 213 214 219 224 228 222 215 226 219 207 199 203 200 193 182 170 164 164 170 166 159 146 159 169 195 205 227 199 180 167 186 180 149 102 96 119 252 285 260 264 282 49 113 261 99 240 48 146 68 144 127 242 192 280 247 348 288 175 129 216 199 207 113 76 7 260 73 40 92 84 99 57 44 50 82 102 127 130 139
234 241 231 234 229 229 219 208 210 213 216 219 216 218 223 215 219 221 213 201 200 197 192 181 168 163 163 166 163 158 152 166 192 209 217 234 208 169 161 164 158 140 113 163 174 188 189 244 248 236 134 170 323 130 73 254 79 131 162 117 210 195 220 250 194 32 94 179 169 165 98 128 215 133 254 107 229 132 99 104 93 86 64 76 105 123 134 141
229 226 234 235 233 230 224 208 206 207 209 210 211 210 213 212 221 220 213 203 198 194 189 182 166 162 158 158 155 148 138 188 230 225 226 223 182 170 166 170 154 150 166 172 191 168 180 206 212 161 157 113 243 170 62 242 116 236 121 202 233 214 120 43 88 113 67 173 112 98 43 96 184 118 156 166 186 151 166 140 87 129 142 143 138 139 145 147
227 224 224 229 230 228 227 211 202 198 197 203 214 213 211 214 217 232 213 204 197 191 184 179 167 161 156 154 143 142 123 97 233 209 218 192 186 166 164 164 152 151 122 220 123 155 198 202 175 162 173 166 255 96 141 231 107 259 107 187 219 202 102 314 48 29 36 93 145 112 93 70 341 148 129 193 87 250 238 192 170 184 166 162 159 154 154 155
224 221 219 217 222 223 222 216 199 199 199 203 209 209 208 210 201 230 218 208 197 189 181 175 168 161 154 142 138 142 129 222 233 182 191 182 184 164 166 157 148 149 165 103 95 185 218 206 177 156 112 209 152 124 224 196 192 127 206 195 194 87 88 207 120 359 357 76 96 62 73 180 302 55 145 124 158 239 209 222 208 170 163 159 165 167 159 165
222 220 217 215 212 217 221 216 197 193 191 191 207 208 203 200 201 214 232 208 201 187 178 172 167 164 151 141 138 167 163 212 164 179 170 176 178 165 161 154 143 139 137 163 159 168 167 224 153 177 180 139 202 167 240 172 170 183 292 233 247 177 144 202 147 222 290 72 73 89 207 3 63 290 253 167 194 234 216 164 182 160 171 172 159 157 168 171
226 219 218 210 206 206 211 221 203 193 182 171 187 208 196 189 187 197 242 216 199 189 172 169 165 160 150 136 143 169 210 246 154 257 162 169 169 160 156 147 128 128 142 153 201 171 178 171 151 195 134 194 265 180 229 186 173 137 212 235 228 149 158 169 161 175 163 89 106 184 79 121 24 280 261 185 243 225 249 194 150 165 158 142 155 174 174 180
219 217 202 188 192 197 205 215 214 190 180 178 175 186 193 164 174 179 188 228 197 189 171 168 164 157 140 133 127 209 220 221 231 206 168 159 157 154 145 139 139 135 154 183 176 182 154 161 175 148 167 167 222 168 182 87 158 187 238 228 209 81 161 142 149 181 200 190 157 78 96 242 183 205 19 250 245 251 239 159 118 130 146 162 165 178 182 182
207 204 189 185 181 185 196 203 217 206 181 175 170 174 185 173 184 186 157 238 198 185 174 162 163 157 151 139 165 170 227 215 213 147 147 148 147 143 138 146 160 152 167 179 195 178 150 209 166 166 217 186 249 162 198 132 274 202 208 134 202 148 169 157 147 187 182 219 137 87 232 261 252 207 253 238 245 241 215 161 133 140 154 168 179 181 180 187
205 189 186 178 175 182 187 208 209 208 195 181 180 175 159 170 183 169 209 175 218 174 172 163 153 154 152 140 131 209 208 136 124 141 145 145 148 144 163 155 160 156 152 197 165 155 174 193 170 172 118 186 180 221 182 161 222 187 232 185 174 197 149 201 154 210 211 192 181 183 239 252 271 146 270 270 241 234 173 174 163 151 169 181 180 186 187 184
205 186 185 179 172 177 188 192 219 207 205 187 184 170 157 171 175 178 182 184 233 172 169 160 147 152 163 160 164 205 79 141 175 148 146 146 148 156 167 160 163 162 150 123 93 28 114 104 133 125 49 217 139 238 154 223 143 98 127 108 182 329 180 179 174 211 143 276 193 169 240 273 273 206 225 238 288 157 178 187 186 172 180 185 185 185 192 192
210 188 187 183 173 170 186 192 204 196 202 189 188 173 156 151 164 150 153 176 210 179 162 155 155 152 157 175 192 187 352 88 157 158 151 150 162 163 152 164 168 161 152 134 98 65 97 122 147 140 181 125 293 110 266 202 106 144 95 136 284 286 268 201 191 209 163 244 179 160 336 276 229 231 208 229 235 179 170 186 190 195 191 187 190 189 189 198
214 204 194 185 176 175 175 176 207 207 190 185 178 151 126 127 134 145 153 158 198 186 163 157 154 168 138 186 209 100 37 360 152 152 153 136 102 84 108 105 109 123 146 129 138 136 94 86 119 113 44 84 177 131 267 138 150 78 56 129 6 355 286 235 201 178 170 229 155 131 273 253 233 232 223 219 213 191 185 192 202 205 204 202 189 195 199 194
203 205 196 185 179 179 179 189 198 203 184 181 176 158 143 115 113 148 159 178 171 177 179 156 158 163 168 222 161 134 349 12 166 153 153 135 117 104 95 87 86 88 95 100 111 131 96 85 95 116 17 108 164 323 57 33 70 144 184 81 173 286 255 237 185 179 184 194 160 129 217 263 264 266 230 234 198 182 202 209 215 216 215 212 211 200 200 200
205 209 209 187 182 176 175 185 201 193 181 185 181 162 159 154 128 133 174 117 136 203 190 165 160 146 183 222 344 47 48 333 172 168 160 142 126 111 116 106 81 89 92 103 112 104 114 104 92 77 121 116 61 23 235 91 27 155 92 246 278 190 273 288 224 165 185 236 179 126 260 257 251 245 250 196 175 182 203 211 221 221 216 213 211 214 211 207
196 203 207 190 181 181 169 165 183 184 168 170 169 156 143 131 117 104 126 139 121 167 165 169 176 162 129 187 199 103 53 176 181 164 170 144 148 146 141 112 113 88 87 56 106 86 44 79 95 156 114 104 116 142 164 77 283 275 144 206 204 193 244 329 252 188 179 133 231 176 220 299 294 250 243 214 166 182 196 208 214 222 218 212 210 211 213 213
201 204 202 192 179 177 166 170 173 160 154 157 138 125 115 110 101 91 94 120 160 146 180 211 158 221 174 114 105 152 157 230 155 159 159 167 149 140 126 123 109 101 88 73 48 68 3 71 220 64 76 154 156 156 152 212 181 209 154 198 200 194 208 235 303 184 158 153 206 232 239 237 238 312 277 237 174 177 194 209 217 220 221 215 209 208 206 204
198 205 199 187 170 164 163 158 151 161 159 158 150 125 112 105 105 94 73 91 71 182 200 297 155 79 232 151 172 171 146 157 175 162 162 160 141 150 143 130 125 118 102 65 349 90 330 70 34 170 119 195 174 192 185 200 179 170 173 207 238 190 183 207 160 223 149 196 193 213 231 253 254 280 296 267 209 183 201 206 215 222 224 219 215 213 208 202
196 199 196 177 163 158 159 150 153 152 145 140 121 107 94 70 5 64 114 154 156 165 232 183 168 178 188 186 233 154 156 151 150 161 158 148 152 139 97 115 136 136 149 157 228 121 148 61 66 130 195 193 198 192 210 135 155 174 181 192 149 186 226 209 238 228 171 192 220 195 216 238 250 256 267 270 245 213 214 214 221 226 226 231 216 213 213 208
190 193 200 173 161 158 150 148 149 143 137 136 131 117 101 134 187 184 142 138 221 230 313 13 355 13 44 67 157 83 80 129 147 187 155 151 143 142 124 137 133 149 153 181 146 186 144 174 191 202 198 186 192 191 196 198 161 176 187 162 194 182 255 260 219 221 192 174 217 211 219 237 248 243 246 248 238 240 237 227 226 224 224 223 224 215 212 212
191 193 194 172 164 156 148 147 144 143 148 156 151 141 172 172 159 214 190 214 218 223 256 281 63 35 26 34 149 140 137 161 177 175 169 154 149 139 160 142 155 162 195 160 145 111 150 188 213 206 187 181 186 181 198 233 167 219 156 171 208 182 220 244 224 256 133 167 268 245 242 247 251 252 246 249 240 233 225 231 230 225 221 218 216 217 214 217
194 200 180 158 165 165 151 150 150 148 159 172 162 165 179 190 133 280 127 229 223 221 232 260 1 346 13 324 219 165 145 146 177 171 169 160 161 153 175 165 170 176 168 132 119 150 186 209 205 190 176 173 186 185 199 220 212 223 202 185 175 226 197 340 9 45 280 194 270 280 240 260 261 257 258 248 235 229 219 219 222 219 223 222 220 217 214 213
189 197 176 161 165 153 152 146 149 141 128 159 168 182 185 180 68 170 146 52 31 182 220 247 264 254 296 288 212 9 188 165 162 168 169 172 169 174 162 168 177 164 158 156 165 168 194 217 193 173 172 175 187 189 192 218 232 223 198 169 199 224 163 261 302 303 253 169 229 345 305 275 270 259 259 255 245 246 236 223 224 216 217 216 216 213 211 211
187 187 166 160 155 155 148 145 137 136 164 176 149 184 200 100 131 125 116 125 207 197 199 209 232 256 226 222 341 2 199 177 158 168 173 172 174 162 170 171 164 166 175 174 179 184 194 164 154 163 182 179 183 185 192 199 222 221 195 179 171 176 206 165 225 207 253 306 19 360 315 285 236 259 260 246 241 246 245 249 245 237 229 223 226 222 210 208
178 173 156 156 156 134 145 135 135 161 140 77 321 256 237 236 121 134 88 111 5 315 115 108 156 245 215 43 72 60 216 262 189 163 173 174 160 153 188 166 159 178 172 180 174 183 160 147 148 170 178 178 176 189 199 185 212 225 231 187 174 168 134 28 133 125 36 322 268 120 349 285 286 266 261 272 286 255 251 244 246 243 234 230 235 229 227 229
170 167 159 153 146 141 145 147 183 149 144 164 206 235 238 334 80 124 111 77 282 210 130 198 122 238 113 227 121 158 345 218 154 162 139 206 354 166 153 180 173 170 172 173 175 186 164 156 154 169 177 183 187 193 195 179 193 194 239 176 172 143 101 115 115 96 258 232 287 98 194 277 315 299 274 279 293 278 279 242 249 243 242 233 228 221 218 217
166 165 151 148 143 147 151 189 167 132 146 190 180 100 263 41 73 88 111 34 311 166 151 65 162 249 155 172 132 125 187 199 61 123 172 297 171 334 166 159 152 158 163 149 156 203 144 160 158 162 169 175 190 205 196 178 162 214 232 159 171 168 148 133 116 138 211 259 319 30 128 247 300 264 246 269 274 276 282 273 248 243 238 233 231 222 218 218
162 159 144 142 147 147 169 135 136 166 168 147 117 126 151 63 60 83 77 102 262 127 177 173 243 33 296 143 134 182 322 129 156 211 82 227 144 95 160 173 172 167 162 166 188 156 161 169 167 164 168 181 197 202 181 182 169 222 191 166 185 193 157 121 104 118 140 57 280 311 69 289 250 271 293 312 301 279 260 257 260 246 235 238 233 223 219 218
163 154 146 146 130 87 110 134 151 156 165 123 125 119 91 77 75 101 158 156 132 94 92 155 105 113 129 133 139 205 338 238 222 136 139 78 23 139 152 184 163 159 162 187 170 111 157 172 175 164 161 185 196 194 174 186 172 262 88 75 79 83 76 96 92 78 352 69 249 202 171 232 274 283 284 283 247 258 251 249 248 249 237 226 226 229 226 224
157 153 152 150 93 40 54 100 134 190 133 117 117 110 92 86 68 146 137 264 74 79 168 157 169 169 145 140 171 156 243 295 154 102 146 153 156 50 72 357 164 157 167 192 88 156 127 158 149 155 185 188 165 186 174 184 168 160 95 85 64 50 66 48 69 94 48 267 245 188 213 173 286 254 236 186 221 221 262 263 249 251 256 246 234 228 225 224
156 154 158 152 125 170 114 129 155 136 133 119 107 97 92 34 138 154 174 213 72 198 123 135 172 143 162 169 191 175 217 243 300 167 149 145 71 32 122 66 18 70 73 93 113 42 121 142 163 230 163 123 152 173 344 159 147 126 98 126 91 19 24 39 2 53 155 256 271 208 201 172 219 283 267 237 262 237 212 233 238 232 226 223 205 211 213 210
157 151 147 137 149 97 132 167 174 108 128 131 116 115 123 104 305 183 193 40 70 200 176 135 178 165 172 175 188 177 179 359 257 189 166 173 157 170 189 152 147 124 148 160 176 126 138 168 181 132 328 149 149 120 11 126 148 110 118 123 134 179 65 278 66 215 215 227 234 191 180 26 241 220 259 275 238 263 228 217 185 173 178 162 151 156 151 156
152 143 138 124 127 83 94 114 107 102 56 107 121 131 129 166 190 216 260 138 257 115 218 159 168 180 163 167 195 168 169 203 166 227 180 183 165 194 197 177 181 155 164 174 144 150 208 351 159 151 147 216 152 170 154 158 194 147 158 152 140 121 150 203 228 297 298 279 252 95 163 245 299 262 229 259 261 232 251 244 210 188 178 184 182 177 178 178
145 141 122 127 112 116 130 107 114 108 95 33 119 133 152 188 212 187 152 213 196 5 198 161 162 156 164 180 186 152 177 187 185 194 201 182 191 187 202 251 193 67 102 150 152 164 148 174 221 158 204 185 180 185 177 158 164 172 133 163 173 154 160 195 176 196 209 211 218 265 107 235 127 249 231 230 249 299 224 245 227 225 194 183 169 154 309 245
136 121 119 92 92 80 101 108 114 118 110 119 129 162 170 205 200 177 155 242 273 356 191 225 162 162 172 187 176 176 166 173 185 199 198 184 204 192 193 205 211 126 141 143 239 166 179 159 186 182 191 165 179 147 118 109 63 335 142 76 131 209 131 150 196 136 176 159 140 206 210 191 185 269 291 243 283 294 273 246 210 199 180 111 108 173 207 237
117 130 98 97 104 129 112 122 116 118 139 123 137 175 194 192 195 170 210 171 195 137 184 151 179 170 168 178 168 172 189 167 177 175 216 210 189 199 195 184 198 197 167 169 154 158 160 211 206 139 332 177 179 155 170 152 176 194 140 196 200 123 90 106 28 320 94 57 247 173 295 288 298 298 262 273 258 259 265 260 229 208 196 134 179 234 243 232
122 124 96 115 105 129 118 126 126 119 134 153 159 187 201 228 208 101 168 191 180 159 91 173 194 170 169 172 170 173 191 102 180 172 197 153 239 201 189 205 196 194 215 146 158 303 166 154 313 154 120 309 120 139 154 174 111 94 168 198 95 92 113 122 193 2 136 194 262 141 226 289 8 276 265 231 235 244 243 230 220 235 215 173 211 217 217 210
128 106 99 110 141 127 123 125 119 119 130 162 185 181 46 176 297 169 200 191 103 35 102 195 261 177 173 163 186 170 168 175 171 171 203 165 290 221 191 197 193 202 211 217 157 201 120 86 257 285 149 85 102 112 150 310 336 169 180 168 145 218 231 249 117 221 172 234 271 265 243 252 201 237 347 202 220 239 236 229 215 218 212 189 209 227 229 238
109 119 126 177 144 123 116 114 111 122 132 164 196 194 262 219 250 217 298 282 155 118 160 200 129 280 156 186 152 176 162 190 159 182 166 190 193 209 208 178 196 200 210 173 168 167 186 121 153 337 139 166 98 156 185 205 293 45 100 173 180 97 232 154 201 169 120 249 287 292 86 241 199 219 192 225 206 215 214 205 210 202 191 183 200 200 199 202
131 110 125 166 143 120 115 112 97 87 149 188 184 214 189 208 239 266 315 63 14 163 219 170 170 350 35 268 169 166 187 178 172 187 190 152 182 217 205 209 191 194 201 219 154 168 177 119 158 186 91 126 183 200 190 178 171 159 172 185 194 131 236 121 114 138 167 175 191 256 298 260 253 215 188 217 204 206 197 198 204 195 190 189 192 187 194 199
87 93 118 172 141 128 108 91 93 157 171 268 162 185 64 179 318 283 221 106 342 33 180 126 153 184 189 104 310 258 174 185 172 181 182 147 176 168 227 202 176 190 195 213 220 187 106 192 165 140 181 201 202 203 208 191 185 183 179 189 180 164 135 164 237 78 127 149 226 168 252 265 270 185 206 219 217 203 205 185 191 189 192 191 197 201 186 191
130 127 166 167 161 138 129 132 172 154 119 188 190 174 194 240 95 243 238 123 176 302 358 37 3 169 148 150 190 108 150 176 171 175 203 190 203 216 192 189 192 181 178 198 192 212 153 128 124 177 189 191 193 150 138 208 193 47 173 188 175 163 97 124 196 232 191 237 117 153 315 270 230 235 218 218 204 201 195 182 182 191 193 191 195 193 203 199
86 95 102 152 172 146 135 138 137 144 186 218 88 38 339 26 183 266 139 24 52 337 337 39 223 67 278 121 140 143 143 27 194 192 181 206 210 206 151 183 180 192 191 193 183 225 62 113 122 33 39 346 1 327 43 83 121 150 194 92 148 189 194 200 199 180 182 208 217 281 254 256 299 278 252 206 215 205 187 173 180 187 187 190 187 194 198 211
91 113 130 185 171 164 149 165 166 187 206 23 102 190 150 201 146 260 117 155 154 63 132 258 338 128 254 115 154 195 179 202 40 31 343 263 265 193 172 190 174 186 184 197 192 170 178 240 142 134 114 70 351 343 148 337 184 187 188 193 193 196 198 179 92 73 168 216 187 186 236 254 263 229 9 97 118 158 181 208 175 169 196 191 191 196 200 204
104 56 55 161 237 259 182 182 172 176 189 162 138 186 119 250 232 189 183 154 186 169 152 261 192 224 299 146 135 150 199 209 147 258 212 33 229 222 177 186 186 177 204 197 204 306 238 158 156 168 166 174 188 194 188 175 201 196 200 193 198 190 192 182 212 175 215 263 140 201 249 249 240 31 56 52 108 121 218 198 213 189 178 184 199 195 202 200
159 128 166 60 143 336 331 359 154 160 156 142 147 216 128 221 330 260 18 304 10 194 182 243 237 177 264 21 92 204 214 264 127 204 182 212 272 320 185 179 184 201 192 197 163 95 256 266 199 188 186 196 195 197 192 159 103 102 150 190 199 201 189 195 168 215 213 200 186 222 226 251 183 231 142 217 175 179 187 224 182 200 214 200 191 192 194 197
80 116 148 165 60 334 199 34 141 147 172 157 174 159 186 196 199 276 193 244 295 72 284 216 168 126 231 188 245 221 190 256 267 244 191 191 199 216 300 191 198 206 189 152 144 100 60 289 235 226 228 230 151 120 135 151 170 186 185 194 186 171 174 192 198 216 207 116 244 237 228 236 239 166 207 192 210 203 198 194 201 193 187 193 201 199 199 210
103 216 175 169 152 166 173 215 178 157 158 167 201 145 185 192 185 193 184 224 240 199 142 333 216 194 184 182 183 228 181 211 182 222 182 190 151 210 360 227 198 203 189 174 170 161 139 207 229 240 247 284 124 149 160 178 195 190 187 182 188 185 183 191 210 224 191 190 218 233 224 231 254 191 209 201 194 200 203 204 201 194 191 182 171 191 202 211
122 100 133 144 102 160 187 176 169 169 172 172 189 158 178 190 192 189 152 183 228 241 168 221 216 211 211 200 177 208 175 181 239 234 166 181 178 136 211 351 268 221 180 175 174 191 118 230 165 206 247 251 280 179 172 177 189 200 200 199 195 190 192 198 211 215 205 211 229 245 236 221 243 195 207 207 214 211 217 214 167 171 201 196 194 202 207 210
174 143 166 151 86 145 168 105 150 157 201 188 188 200 184 184 197 184 205 156 156 236 176 217 223 221 211 203 187 216 200 202 205 216 178 145 227 169 196 195 173 123 172 198 178 210 164 215 156 181 218 236 235 267 204 185 186 200 199 200 199 196 201 208 213 218 211 227 237 241 246 259 246 178 214 205 207 199 211 186 201 209 208 196 202 209 211 212
150 135 144 139 126 155 137 142 164 179 186 195 199 203 201 195 207 184 201 179 172 181 181 204 214 229 207 205 211 229 222 224 236 235 188 170 192 200 182 256 148 146 180 205 153 204 183 255 128 143 208 233 207 214 220 205 193 197 199 197 194 195 206 210 216 215 200 211 227 236 251 250 248 161 204 200 184 189 200 205 211 218 212 208 209 212 212 216
64 341 83 120 134 159 144 157 166 158 205 202 194 192 192 200 206 169 214 211 209 206 190 200 206 206 207 190 216 224 225 223 229 235 226 212 222 218 201 174 165 161 167 209 178 173 185 172 160 162 201 230 198 199 202 198 209 221 205 192 195 204 205 208 216 216 205 207 219 218 227 232 150 166 183 204 205 212 210 205 211 214 213 209 207 210 214 215